| time (UTC) | temp F | wind direction | speed knots | gust knots | rain 1hr in | rain 24hr in | rain mn in | humidity % | barometer mb |
| 20260903224510 | 78 | 115 | 5.2 | 9.6 | 0.02 | 0.02 | 0.02 | 79 | 1006.1 |
| 20260903223013 | 75 | 107 | 4.3 | 8.7 | 0.02 | 0.02 | 0.02 | 82 | 1006.0 |
| 20260903221504 | 76 | 112 | 5.2 | 8.7 | 0.02 | 0.02 | 0.02 | 77 | 1006.1 |
| 20260903220005 | 79 | 145 | 5.2 | 14.8 | 0.00 | 0.00 | 0.00 | 68 | 1006.2 |
| 20260903214628 | 80 | 171 | 6.1 | 13.0 | 0.00 | 0.00 | 0.00 | 68 | 1006.1 |
| 20260903213018 | 80 | 165 | 6.1 | 11.3 | 0.00 | 0.00 | 0.00 | 66 | 1006.2 |
| 20260903211627 | 81 | 163 | 3.5 | 12.2 | 0.00 | 0.00 | 0.00 | 66 | 1006.3 |
| 20260903210014 | 83 | 167 | 8.7 | 13.9 | 0.00 | 0.00 | 0.00 | 64 | 1005.9 |
| 20260903204502 | 85 | 266 | 6.1 | 13.9 | 0.00 | 0.00 | 0.00 | 61 | 1006.1 |
| 20260903203015 | 83 | 128 | 5.2 | 14.8 | 0.00 | 0.00 | 0.00 | 62 | 1006.0 |
| 20260903201517 | 84 | 155 | 8.7 | 16.5 | 0.00 | 0.00 | 0.00 | 60 | 1006.4 |
| 20260903200007 | 84 | 167 | 6.1 | 15.6 | 0.00 | 0.00 | 0.00 | 62 | 1006.4 |
| 20260903194515 | 85 | 159 | 7.0 | 17.4 | 0.00 | 0.00 | 0.00 | 59 | 1006.4 |
| 20260903193014 | 86 | 187 | 7.8 | 10.4 | 0.00 | 0.00 | 0.00 | 57 | 1006.5 |
| 20260903191511 | 86 | 168 | 7.8 | 15.6 | 0.00 | 0.00 | 0.00 | 58 | 1006.6 |
| 20260903190126 | 86 | 157 | 6.1 | 13.9 | 0.00 | 0.00 | 0.00 | 57 | 1006.7 |
| 20260903184509 | 86 | 156 | 6.1 | 15.6 | 0.00 | 0.00 | 0.00 | 57 | 1006.8 |
| 20260903183127 | 85 | 114 | 5.2 | 11.3 | 0.00 | 0.00 | 0.00 | 60 | 1006.9 |
| 20260903181508 | 84 | 115 | 5.2 | 13.0 | 0.00 | 0.00 | 0.00 | 65 | 1007.1 |
| 20260903180035 | 84 | 122 | 8.7 | 13.0 | 0.00 | 0.00 | 0.00 | 66 | 1007.2 |
| 20260903174627 | 83 | 116 | 9.6 | 14.8 | 0.00 | 0.00 | 0.00 | 64 | 1007.4 |
| 20260903173004 | 82 | 117 | 2.6 | 10.4 | 0.00 | 0.00 | 0.00 | 67 | 1007.7 |
| 20260903171511 | 84 | 128 | 4.3 | 10.4 | 0.00 | 0.00 | 0.00 | 68 | 1007.9 |
| 20260903170015 | 82 | 125 | 4.3 | 8.7 | 0.00 | 0.00 | 0.00 | 69 | 1008.1 |
| 20260903164513 | 80 | 130 | 3.5 | 7.0 | 0.00 | 0.00 | 0.00 | 71 | 1008.4 |
| 20260903163010 | 80 | 167 | 3.5 | 7.8 | 0.00 | 0.00 | 0.00 | 70 | 1008.4 |
| 20260903161505 | 80 | 121 | 2.6 | 7.0 | 0.00 | 0.00 | 0.00 | 72 | 1008.4 |
| 20260903160016 | 80 | 126 | 2.6 | 7.8 | 0.00 | 0.00 | 0.00 | 75 | 1008.5 |
| 20260903154636 | 80 | 124 | 3.5 | 8.7 | 0.00 | 0.00 | 0.00 | 72 | 1008.3 |
| 20260903153018 | 79 | 111 | 2.6 | 7.0 | 0.00 | 0.00 | 0.00 | 75 | 1008.3 |
| 20260903151504 | 78 | 129 | 4.3 | 7.8 | 0.00 | 0.00 | 0.00 | 77 | 1008.3 |
| 20260903150126 | 77 | 96 | 4.3 | 7.8 | 0.00 | 0.00 | 0.00 | 76 | 1008.4 |
| 20260903144630 | 77 | 100 | 3.5 | 7.0 | 0.00 | 0.00 | 0.00 | 77 | 1008.6 |
| 20260903143128 | 76 | 128 | 5.2 | 7.8 | 0.00 | 0.00 | 0.00 | 78 | 1008.5 |
| 20260903141522 | 74 | 125 | 2.6 | 8.7 | 0.00 | 0.00 | 0.00 | 79 | 1008.5 |
| 20260903140127 | 73 | 59 | 3.5 | 8.7 | 0.00 | 0.00 | 0.00 | 80 | 1008.6 |
| 20260903134626 | 71 | 108 | 3.5 | 8.7 | 0.00 | 0.00 | 0.00 | 81 | 1008.7 |
| 20260903133002 | 70 | 83 | 4.3 | 8.7 | 0.00 | 0.00 | 0.00 | 81 | 1008.8 |
| 20260903131503 | 69 | 74 | 4.3 | 7.8 | 0.00 | 0.00 | 0.00 | 82 | 1009.0 |
| 20260903130012 | 68 | 135 | 4.3 | 8.7 | 0.00 | 0.00 | 0.00 | 82 | 1009.0 |
| 20260903124511 | 67 | 130 | 2.6 | 7.8 | 0.00 | 0.00 | 0.00 | 82 | 1008.9 |
| 20260903123127 | 67 | 76 | 1.7 | 5.2 | 0.00 | 0.00 | 0.00 | 83 | 1009.0 |
| 20260903121630 | 66 | 79 | 1.7 | 4.3 | 0.00 | 0.00 | 0.00 | 83 | 1009.0 |
| 20260903120130 | 66 | 49 | 1.7 | 5.2 | 0.00 | 0.00 | 0.00 | 83 | 1009.1 |
| 20260903114502 | 65 | 59 | 1.7 | 3.5 | 0.00 | 0.00 | 0.00 | 83 | 1009.1 |
| 20260903113020 | 66 | 30 | 2.6 | 5.2 | 0.00 | 0.00 | 0.00 | 82 | 1009.0 |
| 20260903111506 | 66 | 76 | 0.9 | 4.3 | 0.00 | 0.00 | 0.00 | 82 | 1009.0 |
| 20260903110003 | 66 | 84 | 2.6 | 5.2 | 0.00 | 0.00 | 0.00 | 82 | 1008.9 |
| 20260903104626 | 66 | 71 | 2.6 | 5.2 | 0.00 | 0.00 | 0.00 | 82 | 1008.7 |
| 20260903103002 | 66 | 70 | 1.7 | 7.0 | 0.00 | 0.00 | 0.00 | 81 | 1008.5 |
| 20260903101628 | 66 | 70 | 3.5 | 7.8 | 0.00 | 0.00 | 0.00 | 82 | 1008.6 |
| 20260903100018 | 66 | 75 | 2.6 | 7.0 | 0.00 | 0.00 | 0.00 | 82 | 1008.5 |
| 20260903094510 | 67 | 40 | 0.9 | 4.3 | 0.00 | 0.00 | 0.00 | 81 | 1008.5 |
| 20260903093031 | 67 | 49 | 1.7 | 6.1 | 0.00 | 0.00 | 0.00 | 80 | 1008.4 |
| 20260903091506 | 67 | 72 | 2.6 | 5.2 | 0.00 | 0.00 | 0.00 | 81 | 1008.4 |
| 20260903090023 | 67 | 76 | 1.7 | 3.5 | 0.00 | 0.00 | 0.00 | 81 | 1008.6 |
| 20260903084624 | 67 | 62 | 1.7 | 4.3 | 0.00 | 0.00 | 0.00 | 79 | 1008.8 |
| 20260903083001 | 67 | 59 | 0.9 | 5.2 | 0.00 | 0.00 | 0.00 | 79 | 1008.8 |
| 20260903081630 | 67 | 48 | 1.7 | 7.0 | 0.00 | 0.00 | 0.00 | 79 | 1008.7 |
| 20260903080125 | 67 | 92 | 2.6 | 7.8 | 0.00 | 0.00 | 0.00 | 78 | 1008.8 |
| 20260903074509 | 68 | 65 | 2.6 | 6.1 | 0.00 | 0.00 | 0.00 | 77 | 1008.9 |
| 20260903073012 | 68 | 80 | 0.9 | 3.5 | 0.00 | 0.00 | 0.00 | 77 | 1009.0 |
| 20260903071626 | 68 | 98 | 1.7 | 4.3 | 0.00 | 0.00 | 0.00 | 76 | 1009.0 |
| 20260903070019 | 69 | 35 | 1.7 | 7.8 | 0.00 | 0.00 | 0.00 | 74 | 1009.1 |
| 20260903064506 | 69 | 57 | 1.7 | 5.2 | 0.00 | 0.00 | 0.00 | 74 | 1009.3 |
| 20260903063125 | 70 | 22 | 2.6 | 5.2 | 0.00 | 0.00 | 0.00 | 74 | 1009.2 |
| 20260903061630 | 70 | 63 | 1.7 | 4.3 | 0.00 | 0.00 | 0.00 | 74 | 1009.3 |
| 20260903060131 | 70 | 66 | 0.9 | 2.6 | 0.00 | 0.00 | 0.00 | 75 | 1009.5 |
| 20260903054522 | 69 | 72 | 0.9 | 4.3 | 0.00 | 0.00 | 0.00 | 75 | 1009.6 |
| 20260903053130 | 69 | 48 | 0.9 | 4.3 | 0.00 | 0.00 | 0.00 | 75 | 1009.6 |
| 20260903051505 | 69 | 49 | 0.9 | 3.5 | 0.00 | 0.00 | 0.00 | 74 | 1009.7 |
| 20260903050009 | 70 | 42 | 0.9 | 3.5 | 0.00 | 0.00 | 0.00 | 73 | 1009.7 |
| 20260903044506 | 70 | 38 | 0.9 | 3.5 | 0.00 | 0.00 | 0.00 | 73 | 1009.7 |
| 20260903043124 | 70 | 40 | 1.7 | 3.5 | 0.00 | 0.00 | 0.00 | 72 | 1009.7 |
| 20260903041517 | 71 | 65 | 0.9 | 4.3 | 0.00 | 0.00 | 0.00 | 71 | 1009.7 |
| 20260903040008 | 71 | 59 | 2.6 | 5.2 | 0.00 | 0.00 | 0.00 | 70 | 1009.7 |
| 20260903034514 | 72 | 51 | 2.6 | 5.2 | 0.00 | 0.00 | 0.00 | 69 | 1009.7 |
| 20260903033122 | 72 | 51 | 2.6 | 5.2 | 0.00 | 0.00 | 0.00 | 68 | 1009.9 |
| 20260903031503 | 72 | 49 | 1.7 | 4.3 | 0.00 | 0.00 | 0.00 | 69 | 1009.9 |
| 20260903030127 | 73 | 43 | 1.7 | 5.2 | 0.00 | 0.00 | 0.00 | 68 | 1010.0 |
| 20260903024512 | 73 | 74 | 1.7 | 4.3 | 0.00 | 0.00 | 0.00 | 67 | 1009.9 |
| 20260903023002 | 74 | 55 | 2.6 | 5.2 | 0.00 | 0.00 | 0.00 | 67 | 1010.0 |
| 20260903021627 | 73 | 56 | 0.9 | 4.3 | 0.00 | 0.00 | 0.00 | 69 | 1009.9 |
| 20260903020012 | 73 | 43 | 1.7 | 2.6 | 0.00 | 0.00 | 0.00 | 71 | 1009.7 |
| 20260903014510 | 74 | 43 | 0.9 | 2.6 | 0.00 | 0.00 | 0.00 | 69 | 1009.3 |
| 20260903013007 | 72 | 43 | 1.7 | 3.5 | 0.00 | 0.00 | 0.00 | 72 | 1009.2 |
| 20260903011510 | 73 | 43 | 0.9 | 1.7 | 0.00 | 0.00 | 0.00 | 72 | 1009.2 |
| 20260903010008 | 73 | 43 | 0.0 | 0.9 | 0.00 | 0.00 | 0.00 | 69 | 1009.2 |
| 20260903004520 | 76 | 43 | 0.0 | 2.6 | 0.00 | 0.00 | 0.00 | 64 | 1009.2 |
| 20260903003010 | 79 | 43 | 0.9 | 4.3 | 0.00 | 0.00 | 0.00 | 57 | 1009.1 |
| 20260903001514 | 80 | 45 | 1.7 | 4.3 | 0.00 | 0.00 | 0.00 | 56 | 1009.1 |
| 20260903000132 | 80 | 64 | 2.6 | 5.2 | 0.00 | 0.00 | 0.00 | 56 | 1009.0 |
| 20260902234505 | 82 | 35 | 2.6 | 4.3 | 0.00 | 0.00 | 0.00 | 54 | 1009.2 |
| 20260902233002 | 81 | 69 | 0.9 | 4.3 | 0.00 | 0.00 | 0.00 | 59 | 1009.1 |
| 20260902231518 | 80 | 85 | 0.9 | 2.6 | 0.00 | 0.00 | 0.00 | 58 | 1009.1 |
| 20260902230139 | 83 | 53 | 2.6 | 7.0 | 0.00 | 0.00 | 0.00 | 52 | 1009.2 |